| time (UTC) | temp C | wind direction | speed KPH | gust KPH | rain 1hr cm | rain 24hr cm | rain mn cm | humidity % | barometer mb |
| 20260903043710 | 23 | 301 | 0.0 | 0.0 | 0.00 | 0.00 | 0.00 | 85 | 1050.6 |
| 20260903043209 | 23 | 301 | 0.0 | 1.6 | 0.00 | 0.00 | 0.00 | 86 | 1050.8 |
| 20260903042708 | 23 | 301 | 0.0 | 0.0 | 0.00 | 0.00 | 0.00 | 87 | 1050.9 |
| 20260903042203 | 24 | 301 | 0.0 | 0.0 | 0.00 | 0.00 | 0.00 | 85 | 1050.9 |
| 20260903041659 | 24 | 301 | 0.0 | 0.0 | 0.00 | 0.00 | 0.00 | 84 | 1050.7 |
| 20260903041155 | 24 | 301 | 0.0 | 0.0 | 0.00 | 0.00 | 0.00 | 82 | 1051.0 |
| 20260903040654 | 24 | 301 | 0.0 | 0.0 | 0.00 | 0.00 | 0.00 | 81 | 1050.9 |
| 20260903040150 | 24 | 301 | 0.0 | 0.0 | 0.00 | 0.00 | 0.00 | 83 | 1050.9 |
| 20260903035646 | 24 | 301 | 0.0 | 0.0 | 0.00 | 0.00 | 0.00 | 84 | 1050.7 |
| 20260903035142 | 24 | 301 | 0.0 | 0.0 | 0.00 | 0.00 | 0.00 | 83 | 1050.8 |
| 20260903034642 | 24 | 301 | 0.0 | 0.0 | 0.00 | 0.00 | 0.00 | 83 | 1050.8 |
| 20260903034136 | 24 | 301 | 0.0 | 0.0 | 0.00 | 0.00 | 0.00 | 83 | 1050.9 |
| 20260903033632 | 24 | 301 | 0.0 | 0.0 | 0.00 | 0.00 | 0.00 | 84 | 1050.8 |
| 20260903033132 | 24 | 301 | 0.0 | 0.0 | 0.00 | 0.00 | 0.00 | 84 | 1050.9 |
| 20260903032627 | 24 | 301 | 0.0 | 0.0 | 0.00 | 0.00 | 0.00 | 85 | 1050.9 |
| 20260903032123 | 24 | 301 | 0.0 | 0.0 | 0.00 | 0.00 | 0.00 | 85 | 1051.0 |
| 20260903031618 | 24 | 301 | 0.0 | 0.0 | 0.00 | 0.00 | 0.00 | 86 | 1051.0 |
| 20260903031113 | 24 | 301 | 0.0 | 0.0 | 0.00 | 0.00 | 0.00 | 85 | 1051.0 |
| 20260903030609 | 24 | 301 | 0.0 | 0.0 | 0.00 | 0.00 | 0.00 | 84 | 1051.0 |
| 20260903030104 | 24 | 301 | 0.0 | 1.6 | 0.00 | 0.00 | 0.00 | 83 | 1050.9 |
| 20260903025605 | 25 | 301 | 0.0 | 0.0 | 0.00 | 0.00 | 0.00 | 83 | 1050.9 |
| 20260903025100 | 25 | 301 | 0.0 | 0.0 | 0.00 | 0.00 | 0.00 | 82 | 1051.0 |
| 20260903024555 | 25 | 301 | 0.0 | 0.0 | 0.00 | 0.00 | 0.00 | 81 | 1051.0 |
| 20260903024049 | 25 | 301 | 0.0 | 1.6 | 0.00 | 0.00 | 0.00 | 82 | 1051.1 |
| 20260903023544 | 25 | 301 | 1.6 | 1.6 | 0.00 | 0.00 | 0.00 | 81 | 1051.1 |
| 20260903023040 | 25 | 301 | 1.6 | 1.6 | 0.00 | 0.00 | 0.00 | 79 | 1050.9 |
| 20260903022539 | 25 | 301 | 1.6 | 1.6 | 0.00 | 0.00 | 0.00 | 79 | 1051.0 |
| 20260903022038 | 25 | 301 | 0.0 | 1.6 | 0.00 | 0.00 | 0.00 | 80 | 1051.0 |
| 20260903021533 | 25 | 301 | 1.6 | 1.6 | 0.00 | 0.00 | 0.00 | 80 | 1051.0 |
| 20260903021028 | 25 | 301 | 1.6 | 1.6 | 0.00 | 0.00 | 0.00 | 79 | 1051.1 |
| 20260903020524 | 25 | 301 | 1.6 | 1.6 | 0.00 | 0.00 | 0.00 | 79 | 1050.8 |
| 20260903020023 | 25 | 301 | 0.0 | 0.0 | 0.00 | 0.00 | 0.00 | 78 | 1051.1 |
| 20260903015519 | 25 | 301 | 0.0 | 0.0 | 0.00 | 0.00 | 0.00 | 78 | 1051.2 |
| 20260903015014 | 25 | 301 | 0.0 | 1.6 | 0.00 | 0.00 | 0.00 | 77 | 1051.2 |
| 20260903014508 | 26 | 301 | 0.0 | 0.0 | 0.00 | 0.00 | 0.00 | 77 | 1051.0 |
| 20260903014003 | 26 | 301 | 0.0 | 0.0 | 0.00 | 0.00 | 0.00 | 76 | 1051.1 |
| 20260903013502 | 26 | 301 | 0.0 | 0.0 | 0.00 | 0.00 | 0.00 | 74 | 1050.9 |
| 20260903013002 | 26 | 301 | 0.0 | 0.0 | 0.00 | 0.00 | 0.00 | 73 | 1051.2 |
| 20260903012501 | 26 | 301 | 0.0 | 0.0 | 0.00 | 0.00 | 0.00 | 72 | 1050.9 |
| 20260903012000 | 26 | 301 | 0.0 | 1.6 | 0.00 | 0.00 | 0.00 | 72 | 1050.9 |
| 20260903011455 | 27 | 301 | 0.0 | 1.6 | 0.00 | 0.00 | 0.00 | 72 | 1050.9 |
| 20260903010951 | 27 | 301 | 0.0 | 1.6 | 0.00 | 0.00 | 0.00 | 71 | 1050.8 |
| 20260903010451 | 27 | 301 | 0.0 | 0.0 | 0.00 | 0.00 | 0.00 | 70 | 1050.8 |
| 20260903005948 | 27 | 301 | 0.0 | 0.0 | 0.00 | 0.00 | 0.00 | 69 | 1050.8 |
| 20260903005444 | 27 | 301 | 0.0 | 0.0 | 0.00 | 0.00 | 0.00 | 69 | 1050.8 |
| 20260903004941 | 28 | 301 | 0.0 | 0.0 | 0.00 | 0.00 | 0.00 | 67 | 1050.9 |
| 20260903004441 | 28 | 301 | 0.0 | 0.0 | 0.00 | 0.00 | 0.00 | 66 | 1050.7 |
| 20260903003936 | 28 | 301 | 0.0 | 0.0 | 0.00 | 0.00 | 0.00 | 65 | 1050.6 |
| 20260903003436 | 28 | 301 | 1.6 | 1.6 | 0.00 | 0.00 | 0.00 | 65 | 1050.7 |
| 20260903002932 | 28 | 301 | 1.6 | 0.0 | 0.00 | 0.00 | 0.00 | 66 | 1050.7 |
| 20260903002427 | 28 | 301 | 0.0 | 0.0 | 0.00 | 0.00 | 0.00 | 66 | 1050.7 |
| 20260903001926 | 28 | 301 | 0.0 | 0.0 | 0.00 | 0.00 | 0.00 | 66 | 1050.5 |
| 20260903001426 | 29 | 301 | 0.0 | 0.0 | 0.00 | 0.00 | 0.00 | 67 | 1050.7 |
| 20260903000926 | 29 | 301 | 0.0 | 0.0 | 0.00 | 0.00 | 0.00 | 66 | 1050.6 |
| 20260903000421 | 30 | 301 | 0.0 | 0.0 | 0.00 | 0.00 | 0.00 | 64 | 1050.7 |
| 20260902235919 | 30 | 301 | 0.0 | 0.0 | 0.00 | 0.00 | 0.00 | 61 | 1050.6 |
| 20260902235415 | 31 | 301 | 0.0 | 0.0 | 0.00 | 0.00 | 0.00 | 59 | 1050.5 |
| 20260902234915 | 31 | 301 | 0.0 | 0.0 | 0.00 | 0.00 | 0.00 | 59 | 1050.8 |
| 20260902234410 | 31 | 301 | 0.0 | 0.0 | 0.00 | 0.00 | 0.00 | 60 | 1050.9 |
| 20260902233909 | 31 | 301 | 0.0 | 0.0 | 0.00 | 0.00 | 0.00 | 61 | 1050.8 |
| 20260902233403 | 31 | 301 | 0.0 | 0.0 | 0.00 | 0.00 | 0.00 | 61 | 1050.7 |
| 20260902232902 | 32 | 301 | 0.0 | 0.0 | 0.00 | 0.00 | 0.00 | 61 | 1050.8 |
| 20260902232357 | 32 | 301 | 0.0 | 0.0 | 0.00 | 0.00 | 0.00 | 56 | 1050.8 |
| 20260902231856 | 32 | 301 | 0.0 | 1.6 | 0.00 | 0.00 | 0.00 | 57 | 1050.7 |
| 20260902231351 | 32 | 301 | 1.6 | 1.6 | 0.00 | 0.00 | 0.00 | 55 | 1050.5 |
| 20260902230846 | 32 | 301 | 1.6 | 1.6 | 0.00 | 0.00 | 0.00 | 53 | 1050.7 |
| 20260902230346 | 32 | 301 | 1.6 | 1.6 | 0.00 | 0.00 | 0.00 | 52 | 1050.8 |
| 20260902225845 | 32 | 301 | 3.2 | 1.6 | 0.00 | 0.00 | 0.00 | 51 | 1050.7 |
| 20260902225341 | 33 | 300 | 3.2 | 3.2 | 0.00 | 0.00 | 0.00 | 50 | 1050.7 |
| 20260902224839 | 33 | 289 | 3.2 | 3.2 | 0.00 | 0.00 | 0.00 | 49 | 1050.6 |
| 20260902224334 | 33 | 260 | 3.2 | 3.2 | 0.00 | 0.00 | 0.00 | 51 | 1050.8 |
| 20260902223832 | 33 | 289 | 1.6 | 1.6 | 0.00 | 0.00 | 0.00 | 51 | 1050.8 |
| 20260902223332 | 33 | 289 | 4.8 | 4.8 | 0.00 | 0.00 | 0.00 | 50 | 1050.8 |
| 20260902222831 | 33 | 298 | 3.2 | 3.2 | 0.00 | 0.00 | 0.00 | 50 | 1050.7 |
| 20260902222330 | 33 | 290 | 4.8 | 4.8 | 0.00 | 0.00 | 0.00 | 49 | 1050.9 |
| 20260902221824 | 33 | 290 | 4.8 | 4.8 | 0.00 | 0.00 | 0.00 | 50 | 1050.8 |
| 20260902221323 | 33 | 277 | 3.2 | 4.8 | 0.00 | 0.00 | 0.00 | 48 | 1051.0 |
| 20260902220819 | 33 | 295 | 4.8 | 4.8 | 0.00 | 0.00 | 0.00 | 49 | 1050.9 |
| 20260902220319 | 33 | 286 | 4.8 | 4.8 | 0.00 | 0.00 | 0.00 | 47 | 1050.8 |
| 20260902215815 | 33 | 293 | 3.2 | 6.4 | 0.00 | 0.00 | 0.00 | 51 | 1051.0 |
| 20260902215314 | 33 | 293 | 1.6 | 1.6 | 0.00 | 0.00 | 0.00 | 51 | 1051.0 |
| 20260902214811 | 33 | 294 | 4.8 | 4.8 | 0.00 | 0.00 | 0.00 | 47 | 1051.1 |
| 20260902214310 | 33 | 302 | 6.4 | 6.4 | 0.00 | 0.00 | 0.00 | 50 | 1050.9 |
| 20260902213805 | 34 | 285 | 6.4 | 9.7 | 0.00 | 0.00 | 0.00 | 47 | 1051.0 |
| 20260902213301 | 34 | 277 | 3.2 | 6.4 | 0.00 | 0.00 | 0.00 | 45 | 1051.1 |
| 20260902212759 | 34 | 218 | 3.2 | 3.2 | 0.00 | 0.00 | 0.00 | 49 | 1051.2 |
| 20260902212256 | 34 | 218 | 4.8 | 4.8 | 0.00 | 0.00 | 0.00 | 49 | 1051.3 |
| 20260902211752 | 34 | 307 | 3.2 | 11.3 | 0.00 | 0.00 | 0.00 | 50 | 1051.3 |
| 20260902211248 | 34 | 295 | 3.2 | 4.8 | 0.00 | 0.00 | 0.00 | 47 | 1051.3 |
| 20260902210747 | 34 | 272 | 3.2 | 11.3 | 0.00 | 0.00 | 0.00 | 49 | 1051.2 |
| 20260902210243 | 34 | 301 | 4.8 | 6.4 | 0.00 | 0.00 | 0.00 | 44 | 1051.0 |
| 20260902205740 | 34 | 308 | 4.8 | 4.8 | 0.00 | 0.00 | 0.00 | 48 | 1051.4 |
| 20260902205236 | 34 | 301 | 6.4 | 9.7 | 0.00 | 0.00 | 0.00 | 48 | 1051.1 |
| 20260902204731 | 34 | 298 | 11.3 | 16.1 | 0.00 | 0.00 | 0.00 | 45 | 1051.1 |
| 20260902204226 | 34 | 241 | 3.2 | 4.8 | 0.00 | 0.00 | 0.00 | 46 | 1051.3 |
| 20260902203721 | 34 | 296 | 9.7 | 12.9 | 0.00 | 0.00 | 0.00 | 46 | 1051.4 |
| 20260902203221 | 34 | 242 | 6.4 | 9.7 | 0.00 | 0.00 | 0.00 | 48 | 1051.2 |
| 20260902202716 | 34 | 300 | 9.7 | 11.3 | 0.00 | 0.00 | 0.00 | 45 | 1051.4 |
| 20260902202213 | 34 | 290 | 6.4 | 9.7 | 0.00 | 0.00 | 0.00 | 47 | 1051.7 |
| 20260902201709 | 34 | 296 | 6.4 | 12.9 | 0.00 | 0.00 | 0.00 | 47 | 1051.3 |
| 20260902201208 | 34 | 319 | 4.8 | 9.7 | 0.00 | 0.00 | 0.00 | 46 | 1051.4 |
| 20260902200703 | 34 | 296 | 4.8 | 9.7 | 0.00 | 0.00 | 0.00 | 47 | 1051.5 |
| 20260902200159 | 34 | 277 | 9.7 | 14.5 | 0.00 | 0.00 | 0.00 | 47 | 1051.5 |
| 20260902195654 | 34 | 283 | 4.8 | 6.4 | 0.00 | 0.00 | 0.00 | 49 | 1051.7 |
| 20260902195154 | 34 | 240 | 4.8 | 11.3 | 0.00 | 0.00 | 0.00 | 48 | 1051.7 |
| 20260902194653 | 34 | 235 | 1.6 | 6.4 | 0.00 | 0.00 | 0.00 | 48 | 1051.7 |
| 20260902194148 | 35 | 296 | 8.0 | 11.3 | 0.00 | 0.00 | 0.00 | 49 | 1052.0 |
| 20260902193644 | 35 | 184 | 3.2 | 4.8 | 0.00 | 0.00 | 0.00 | 45 | 1051.7 |
| 20260902193144 | 35 | 227 | 4.8 | 9.7 | 0.00 | 0.00 | 0.00 | 48 | 1051.9 |
| 20260902192643 | 34 | 221 | 3.2 | 6.4 | 0.00 | 0.00 | 0.00 | 50 | 1052.0 |
| 20260902192142 | 33 | 260 | 3.2 | 3.2 | 0.00 | 0.00 | 0.00 | 51 | 1051.9 |
| 20260902191638 | 34 | 258 | 3.2 | 6.4 | 0.00 | 0.00 | 0.00 | 49 | 1052.0 |
| 20260902191137 | 34 | 302 | 6.4 | 12.9 | 0.00 | 0.00 | 0.00 | 49 | 1052.1 |
| 20260902190633 | 34 | 293 | 3.2 | 9.7 | 0.00 | 0.00 | 0.00 | 49 | 1052.2 |
| 20260902190127 | 34 | 298 | 6.4 | 14.5 | 0.00 | 0.00 | 0.00 | 50 | 1052.2 |
| 20260902185623 | 35 | 297 | 6.4 | 11.3 | 0.00 | 0.00 | 0.00 | 47 | 1052.1 |
| 20260902185119 | 34 | 305 | 3.2 | 6.4 | 0.00 | 0.00 | 0.00 | 45 | 1052.2 |
| 20260902184614 | 34 | 264 | 1.6 | 6.4 | 0.00 | 0.00 | 0.00 | 46 | 1052.2 |
| 20260902184109 | 34 | 252 | 4.8 | 11.3 | 0.00 | 0.00 | 0.00 | 51 | 1052.2 |
| 20260902183606 | 34 | 198 | 6.4 | 9.7 | 0.00 | 0.00 | 0.00 | 50 | 1052.5 |
| 20260902183102 | 33 | 283 | 6.4 | 9.7 | 0.00 | 0.00 | 0.00 | 50 | 1052.2 |
| 20260902182557 | 33 | 261 | 6.4 | 16.1 | 0.00 | 0.00 | 0.00 | 48 | 1052.5 |
| 20260902182054 | 33 | 287 | 1.6 | 6.4 | 0.00 | 0.00 | 0.00 | 48 | 1052.4 |
| 20260902181550 | 33 | 280 | 9.7 | 12.9 | 0.00 | 0.00 | 0.00 | 50 | 1052.4 |
| 20260902181049 | 33 | 308 | 6.4 | 9.7 | 0.00 | 0.00 | 0.00 | 51 | 1052.4 |
| 20260902180544 | 33 | 210 | 6.4 | 11.3 | 0.00 | 0.00 | 0.00 | 50 | 1052.4 |
| 20260902180040 | 34 | 316 | 6.4 | 14.5 | 0.00 | 0.00 | 0.00 | 50 | 1052.3 |
| 20260902175539 | 34 | 250 | 8.0 | 9.7 | 0.00 | 0.00 | 0.00 | 50 | 1052.7 |
| 20260902175036 | 33 | 308 | 3.2 | 6.4 | 0.00 | 0.00 | 0.00 | 55 | 1052.5 |
| 20260902174532 | 33 | 296 | 3.2 | 6.4 | 0.00 | 0.00 | 0.00 | 51 | 1052.7 |
| 20260902174027 | 33 | 213 | 6.4 | 6.4 | 0.00 | 0.00 | 0.00 | 52 | 1052.8 |
| 20260902173527 | 33 | 221 | 8.0 | 11.3 | 0.00 | 0.00 | 0.00 | 55 | 1052.8 |
| 20260902173027 | 33 | 304 | 9.7 | 12.9 | 0.00 | 0.00 | 0.00 | 50 | 1053.1 |
| 20260902172526 | 33 | 185 | 6.4 | 9.7 | 0.00 | 0.00 | 0.00 | 53 | 1053.1 |
| 20260902172022 | 33 | 293 | 4.8 | 11.3 | 0.00 | 0.00 | 0.00 | 54 | 1052.9 |
| 20260902171517 | 33 | 263 | 4.8 | 11.3 | 0.00 | 0.00 | 0.00 | 54 | 1053.3 |
| 20260902171013 | 33 | 296 | 14.5 | 14.5 | 0.00 | 0.00 | 0.00 | 51 | 1053.3 |
| 20260902170508 | 33 | 227 | 6.4 | 11.3 | 0.00 | 0.00 | 0.00 | 50 | 1053.2 |
| 20260902170004 | 33 | 249 | 3.2 | 9.7 | 0.00 | 0.00 | 0.00 | 55 | 1053.4 |
| 20260902165504 | 33 | 294 | 6.4 | 6.4 | 0.00 | 0.00 | 0.00 | 54 | 1053.3 |
| 20260902165004 | 33 | 306 | 11.3 | 12.9 | 0.00 | 0.00 | 0.00 | 55 | 1053.5 |
| 20260902164459 | 33 | 210 | 4.8 | 6.4 | 0.00 | 0.00 | 0.00 | 54 | 1053.5 |
| 20260902163957 | 33 | 286 | 4.8 | 6.4 | 0.00 | 0.00 | 0.00 | 58 | 1053.5 |
| 20260902163454 | 33 | 210 | 3.2 | 4.8 | 0.00 | 0.00 | 0.00 | 57 | 1053.7 |
| 20260902162951 | 33 | 244 | 6.4 | 9.7 | 0.00 | 0.00 | 0.00 | 57 | 1053.6 |
| 20260902162446 | 32 | 305 | 3.2 | 4.8 | 0.00 | 0.00 | 0.00 | 57 | 1053.7 |
| 20260902161946 | 33 | 279 | 6.4 | 9.7 | 0.00 | 0.00 | 0.00 | 56 | 1053.6 |
| 20260902161442 | 32 | 206 | 4.8 | 6.4 | 0.00 | 0.00 | 0.00 | 57 | 1053.6 |
| 20260902160938 | 33 | 294 | 9.7 | 9.7 | 0.00 | 0.00 | 0.00 | 57 | 1053.9 |
| 20260902160433 | 32 | 302 | 1.6 | 4.8 | 0.00 | 0.00 | 0.00 | 62 | 1053.7 |
| 20260902155931 | 32 | 284 | 3.2 | 6.4 | 0.00 | 0.00 | 0.00 | 59 | 1053.6 |
| 20260902155427 | 32 | 298 | 4.8 | 9.7 | 0.00 | 0.00 | 0.00 | 59 | 1053.7 |
| 20260902154920 | 32 | 295 | 1.6 | 6.4 | 0.00 | 0.00 | 0.00 | 58 | 1053.8 |
| 20260902154416 | 32 | 338 | 3.2 | 6.4 | 0.00 | 0.00 | 0.00 | 59 | 1053.8 |
| 20260902153915 | 32 | 288 | 9.7 | 12.9 | 0.00 | 0.00 | 0.00 | 59 | 1053.9 |
| 20260902153414 | 32 | 302 | 4.8 | 4.8 | 0.00 | 0.00 | 0.00 | 61 | 1053.7 |
| 20260902152910 | 32 | 289 | 4.8 | 4.8 | 0.00 | 0.00 | 0.00 | 62 | 1053.8 |
| 20260902152406 | 31 | 271 | 3.2 | 3.2 | 0.00 | 0.00 | 0.00 | 59 | 1053.8 |
| 20260902151902 | 32 | 259 | 4.8 | 6.4 | 0.00 | 0.00 | 0.00 | 63 | 1053.9 |
| 20260902151357 | 31 | 248 | 0.0 | 1.6 | 0.00 | 0.00 | 0.00 | 64 | 1054.1 |
| 20260902150856 | 31 | 290 | 1.6 | 3.2 | 0.00 | 0.00 | 0.00 | 63 | 1053.7 |
| 20260902150353 | 31 | 290 | 3.2 | 6.4 | 0.00 | 0.00 | 0.00 | 65 | 1053.7 |
| 20260902145852 | 31 | 281 | 3.2 | 3.2 | 0.00 | 0.00 | 0.00 | 63 | 1053.7 |
| 20260902145347 | 30 | 266 | 4.8 | 4.8 | 0.00 | 0.00 | 0.00 | 65 | 1053.7 |
| 20260902144842 | 31 | 319 | 6.4 | 11.3 | 0.00 | 0.00 | 0.00 | 65 | 1053.7 |
| 20260902144338 | 31 | 260 | 3.2 | 3.2 | 0.00 | 0.00 | 0.00 | 64 | 1053.6 |
| 20260902143833 | 30 | 311 | 1.6 | 1.6 | 0.00 | 0.00 | 0.00 | 67 | 1053.8 |
| 20260902143333 | 30 | 296 | 3.2 | 4.8 | 0.00 | 0.00 | 0.00 | 67 | 1053.8 |
| 20260902142830 | 30 | 279 | 3.2 | 4.8 | 0.00 | 0.00 | 0.00 | 67 | 1053.7 |
| 20260902142325 | 30 | 298 | 3.2 | 4.8 | 0.00 | 0.00 | 0.00 | 68 | 1053.8 |
| 20260902141820 | 30 | 266 | 3.2 | 4.8 | 0.00 | 0.00 | 0.00 | 68 | 1053.9 |
| 20260902141316 | 29 | 288 | 3.2 | 4.8 | 0.00 | 0.00 | 0.00 | 70 | 1053.8 |
| 20260902140815 | 29 | 293 | 1.6 | 4.8 | 0.00 | 0.00 | 0.00 | 73 | 1053.7 |
| 20260902140310 | 28 | 283 | 4.8 | 4.8 | 0.00 | 0.00 | 0.00 | 70 | 1053.7 |
| 20260902135809 | 28 | 306 | 3.2 | 4.8 | 0.00 | 0.00 | 0.00 | 69 | 1053.6 |
| 20260902135307 | 28 | 264 | 4.8 | 4.8 | 0.00 | 0.00 | 0.00 | 71 | 1053.6 |
| 20260902134805 | 28 | 243 | 3.2 | 4.8 | 0.00 | 0.00 | 0.00 | 70 | 1053.8 |
| 20260902134300 | 28 | 292 | 1.6 | 4.8 | 0.00 | 0.00 | 0.00 | 74 | 1053.7 |
| 20260902133756 | 28 | 293 | 4.8 | 9.7 | 0.00 | 0.00 | 0.00 | 74 | 1053.8 |
| 20260902133255 | 28 | 261 | 1.6 | 6.4 | 0.00 | 0.00 | 0.00 | 75 | 1053.6 |
| 20260902132750 | 27 | 291 | 1.6 | 4.8 | 0.00 | 0.00 | 0.00 | 75 | 1053.7 |
| 20260902132246 | 27 | 285 | 4.8 | 4.8 | 0.00 | 0.00 | 0.00 | 77 | 1053.8 |
| 20260902131741 | 27 | 205 | 1.6 | 4.8 | 0.00 | 0.00 | 0.00 | 78 | 1053.7 |
| 20260902131238 | 26 | 208 | 3.2 | 3.2 | 0.00 | 0.00 | 0.00 | 78 | 1053.6 |
| 20260902130737 | 26 | 224 | 1.6 | 4.8 | 0.00 | 0.00 | 0.00 | 79 | 1053.6 |
| 20260902130233 | 26 | 235 | 3.2 | 6.4 | 0.00 | 0.00 | 0.00 | 79 | 1053.6 |
| 20260902125728 | 26 | 225 | 1.6 | 3.2 | 0.00 | 0.00 | 0.00 | 79 | 1053.5 |
| 20260902125224 | 26 | 217 | 1.6 | 4.8 | 0.00 | 0.00 | 0.00 | 81 | 1053.5 |
| 20260902124720 | 25 | 231 | 3.2 | 4.8 | 0.00 | 0.00 | 0.00 | 82 | 1053.4 |
| 20260902124215 | 25 | 219 | 3.2 | 3.2 | 0.00 | 0.00 | 0.00 | 83 | 1053.5 |
| 20260902123711 | 25 | 222 | 3.2 | 6.4 | 0.00 | 0.00 | 0.00 | 82 | 1053.5 |
| 20260902123207 | 25 | 227 | 3.2 | 3.2 | 0.00 | 0.00 | 0.00 | 83 | 1053.4 |
| 20260902122705 | 25 | 227 | 1.6 | 3.2 | 0.00 | 0.00 | 0.00 | 83 | 1053.4 |
| 20260902122202 | 24 | 201 | 1.6 | 3.2 | 0.00 | 0.00 | 0.00 | 83 | 1053.2 |
| 20260902121701 | 24 | 187 | 0.0 | 3.2 | 0.00 | 0.00 | 0.00 | 85 | 1053.1 |
| 20260902121156 | 23 | 186 | 0.0 | 1.6 | 0.00 | 0.00 | 0.00 | 86 | 1053.2 |
| 20260902120652 | 23 | 186 | 0.0 | 1.6 | 0.00 | 0.00 | 0.00 | 87 | 1053.3 |
| 20260902120149 | 23 | 186 | 1.6 | 1.6 | 0.00 | 0.00 | 0.00 | 88 | 1053.1 |
| 20260902115648 | 22 | 186 | 0.0 | 1.6 | 0.00 | 0.00 | 0.00 | 89 | 1052.9 |
| 20260902115144 | 22 | 186 | 0.0 | 0.0 | 0.00 | 0.00 | 0.00 | 89 | 1052.8 |
| 20260902114640 | 22 | 186 | 0.0 | 0.0 | 0.00 | 0.00 | 0.00 | 89 | 1052.9 |
| 20260902114135 | 22 | 186 | 0.0 | 1.6 | 0.00 | 0.00 | 0.00 | 90 | 1052.8 |
| 20260902113631 | 22 | 186 | 0.0 | 0.0 | 0.00 | 0.00 | 0.00 | 91 | 1052.8 |
| 20260902113125 | 22 | 186 | 0.0 | 0.0 | 0.00 | 0.00 | 0.00 | 91 | 1052.8 |
| 20260902112621 | 22 | 186 | 0.0 | 0.0 | 0.00 | 0.00 | 0.00 | 92 | 1052.6 |
| 20260902112118 | 21 | 186 | 0.0 | 0.0 | 0.00 | 0.00 | 0.00 | 93 | 1052.7 |
| 20260902111613 | 21 | 186 | 0.0 | 1.6 | 0.00 | 0.00 | 0.00 | 93 | 1052.6 |
| 20260902111109 | 21 | 186 | 0.0 | 0.0 | 0.00 | 0.00 | 0.00 | 93 | 1052.6 |
| 20260902110605 | 21 | 186 | 0.0 | 0.0 | 0.00 | 0.00 | 0.00 | 93 | 1052.7 |
| 20260902110100 | 21 | 186 | 0.0 | 0.0 | 0.00 | 0.00 | 0.00 | 94 | 1052.6 |
| 20260902105555 | 21 | 186 | 0.0 | 0.0 | 0.00 | 0.00 | 0.00 | 94 | 1052.6 |
| 20260902105054 | 21 | 186 | 0.0 | 0.0 | 0.00 | 0.00 | 0.00 | 94 | 1052.5 |
| 20260902104551 | 21 | 186 | 0.0 | 0.0 | 0.00 | 0.00 | 0.00 | 94 | 1052.2 |
| 20260902104051 | 21 | 186 | 0.0 | 0.0 | 0.00 | 0.00 | 0.00 | 94 | 1052.4 |
| 20260902103546 | 21 | 186 | 0.0 | 0.0 | 0.00 | 0.00 | 0.00 | 94 | 1052.2 |
| 20260902103041 | 21 | 186 | 0.0 | 1.6 | 0.00 | 0.00 | 0.00 | 94 | 1052.4 |
| 20260902102537 | 21 | 186 | 0.0 | 0.0 | 0.00 | 0.00 | 0.00 | 94 | 1052.5 |
| 20260902102034 | 21 | 186 | 0.0 | 0.0 | 0.00 | 0.00 | 0.00 | 94 | 1052.2 |
| 20260902101529 | 21 | 186 | 0.0 | 0.0 | 0.00 | 0.00 | 0.00 | 94 | 1052.4 |
| 20260902101028 | 21 | 186 | 0.0 | 0.0 | 0.00 | 0.00 | 0.00 | 94 | 1052.2 |
| 20260902100523 | 21 | 186 | 0.0 | 0.0 | 0.00 | 0.00 | 0.00 | 94 | 1052.2 |
| 20260902100023 | 21 | 186 | 0.0 | 0.0 | 0.00 | 0.00 | 0.00 | 94 | 1052.2 |
| 20260902095522 | 21 | 186 | 0.0 | 0.0 | 0.00 | 0.00 | 0.00 | 94 | 1052.2 |
| 20260902095021 | 21 | 186 | 0.0 | 0.0 | 0.00 | 0.00 | 0.00 | 93 | 1052.2 |
| 20260902094517 | 21 | 186 | 0.0 | 0.0 | 0.00 | 0.00 | 0.00 | 93 | 1052.1 |
| 20260902094013 | 21 | 186 | 0.0 | 0.0 | 0.00 | 0.00 | 0.00 | 93 | 1052.2 |
| 20260902093508 | 21 | 186 | 0.0 | 0.0 | 0.00 | 0.00 | 0.00 | 93 | 1052.0 |
| 20260902093007 | 21 | 186 | 0.0 | 0.0 | 0.00 | 0.00 | 0.00 | 93 | 1052.1 |
| 20260902092503 | 21 | 186 | 0.0 | 0.0 | 0.00 | 0.00 | 0.00 | 92 | 1052.2 |
| 20260902092003 | 21 | 186 | 0.0 | 0.0 | 0.00 | 0.00 | 0.00 | 92 | 1052.1 |
| 20260902091458 | 21 | 186 | 0.0 | 1.6 | 0.00 | 0.00 | 0.00 | 92 | 1052.1 |
| 20260902090954 | 22 | 186 | 0.0 | 0.0 | 0.00 | 0.00 | 0.00 | 91 | 1052.1 |
| 20260902090449 | 22 | 186 | 0.0 | 0.0 | 0.00 | 0.00 | 0.00 | 91 | 1052.1 |
| 20260902085948 | 22 | 186 | 0.0 | 0.0 | 0.00 | 0.00 | 0.00 | 91 | 1051.9 |
| 20260902085443 | 22 | 186 | 0.0 | 0.0 | 0.00 | 0.00 | 0.00 | 90 | 1052.1 |
| 20260902084938 | 22 | 186 | 0.0 | 0.0 | 0.00 | 0.00 | 0.00 | 89 | 1052.1 |
| 20260902084435 | 22 | 186 | 0.0 | 0.0 | 0.00 | 0.00 | 0.00 | 88 | 1052.1 |
| 20260902083931 | 23 | 186 | 0.0 | 0.0 | 0.00 | 0.00 | 0.00 | 87 | 1052.0 |
| 20260902083430 | 23 | 186 | 0.0 | 0.0 | 0.00 | 0.00 | 0.00 | 87 | 1052.1 |
| 20260902082924 | 23 | 186 | 0.0 | 0.0 | 0.00 | 0.00 | 0.00 | 87 | 1051.9 |
| 20260902082420 | 23 | 186 | 1.6 | 1.6 | 0.00 | 0.00 | 0.00 | 86 | 1051.8 |
| 20260902081917 | 23 | 186 | 1.6 | 1.6 | 0.00 | 0.00 | 0.00 | 86 | 1052.0 |
| 20260902081413 | 23 | 186 | 1.6 | 1.6 | 0.00 | 0.00 | 0.00 | 86 | 1051.6 |
| 20260902080908 | 23 | 186 | 1.6 | 1.6 | 0.00 | 0.00 | 0.00 | 86 | 1051.8 |
| 20260902080404 | 23 | 186 | 0.0 | 0.0 | 0.00 | 0.00 | 0.00 | 86 | 1052.0 |
| 20260902075903 | 23 | 186 | 1.6 | 3.2 | 0.00 | 0.00 | 0.00 | 86 | 1051.7 |
| 20260902075400 | 23 | 186 | 0.0 | 0.0 | 0.00 | 0.00 | 0.00 | 86 | 1051.7 |
| 20260902074855 | 23 | 186 | 0.0 | 0.0 | 0.00 | 0.00 | 0.00 | 86 | 1051.5 |
| 20260902074350 | 23 | 186 | 0.0 | 1.6 | 0.00 | 0.00 | 0.00 | 87 | 1051.6 |
| 20260902073845 | 23 | 186 | 1.6 | 1.6 | 0.00 | 0.00 | 0.00 | 88 | 1051.7 |
| 20260902073342 | 23 | 186 | 0.0 | 1.6 | 0.00 | 0.00 | 0.00 | 88 | 1051.8 |
| 20260902072838 | 23 | 186 | 0.0 | 1.6 | 0.00 | 0.00 | 0.00 | 86 | 1051.6 |
| 20260902072333 | 23 | 186 | 0.0 | 1.6 | 0.00 | 0.00 | 0.00 | 85 | 1051.6 |
| 20260902071830 | 23 | 187 | 1.6 | 1.6 | 0.00 | 0.00 | 0.00 | 85 | 1051.6 |
| 20260902071329 | 23 | 187 | 0.0 | 1.6 | 0.00 | 0.00 | 0.00 | 84 | 1051.7 |
| 20260902070826 | 23 | 187 | 1.6 | 1.6 | 0.00 | 0.00 | 0.00 | 84 | 1051.7 |
| 20260902070326 | 24 | 191 | 1.6 | 3.2 | 0.00 | 0.00 | 0.00 | 84 | 1051.6 |
| 20260902065824 | 24 | 205 | 1.6 | 4.8 | 0.00 | 0.00 | 0.00 | 84 | 1051.7 |
| 20260902065320 | 24 | 192 | 1.6 | 3.2 | 0.00 | 0.00 | 0.00 | 84 | 1051.8 |
| 20260902064815 | 24 | 184 | 1.6 | 3.2 | 0.00 | 0.00 | 0.00 | 84 | 1051.7 |
| 20260902064311 | 24 | 190 | 1.6 | 3.2 | 0.00 | 0.00 | 0.00 | 83 | 1051.5 |
| 20260902063806 | 24 | 204 | 1.6 | 3.2 | 0.00 | 0.00 | 0.00 | 84 | 1051.6 |
| 20260902063301 | 23 | 188 | 1.6 | 3.2 | 0.00 | 0.00 | 0.00 | 84 | 1051.8 |
| 20260902062801 | 23 | 177 | 1.6 | 4.8 | 0.00 | 0.00 | 0.00 | 86 | 1052.1 |
| 20260902062255 | 22 | 210 | 1.6 | 3.2 | 0.00 | 0.00 | 0.00 | 90 | 1051.9 |
| 20260902061754 | 22 | 288 | 0.0 | 0.0 | 0.00 | 0.00 | 0.00 | 91 | 1052.0 |
| 20260902061250 | 22 | 288 | 0.0 | 0.0 | 0.00 | 0.00 | 0.00 | 91 | 1051.8 |
| 20260902060747 | 22 | 288 | 0.0 | 0.0 | 0.00 | 0.00 | 0.00 | 91 | 1051.8 |
| 20260902060242 | 22 | 288 | 0.0 | 0.0 | 0.00 | 0.00 | 0.00 | 91 | 1051.8 |
| 20260902055737 | 22 | 288 | 0.0 | 0.0 | 0.00 | 0.00 | 0.00 | 91 | 1052.1 |
| 20260902055234 | 22 | 288 | 0.0 | 1.6 | 0.00 | 0.00 | 0.00 | 91 | 1052.0 |
| 20260902054729 | 22 | 288 | 0.0 | 0.0 | 0.00 | 0.00 | 0.00 | 91 | 1051.9 |
| 20260902054224 | 22 | 288 | 0.0 | 0.0 | 0.00 | 0.00 | 0.00 | 90 | 1051.9 |
| 20260902053720 | 22 | 288 | 0.0 | 0.0 | 0.00 | 0.00 | 0.00 | 91 | 1051.9 |
| 20260902053219 | 22 | 288 | 0.0 | 0.0 | 0.00 | 0.00 | 0.00 | 90 | 1052.1 |
| 20260902052719 | 22 | 288 | 0.0 | 0.0 | 0.00 | 0.00 | 0.00 | 90 | 1051.8 |
| 20260902052215 | 22 | 288 | 0.0 | 0.0 | 0.00 | 0.00 | 0.00 | 90 | 1051.9 |
| 20260902051713 | 22 | 288 | 0.0 | 0.0 | 0.00 | 0.00 | 0.00 | 90 | 1051.9 |
| 20260902051208 | 22 | 288 | 0.0 | 0.0 | 0.00 | 0.00 | 0.00 | 89 | 1051.8 |
| 20260902050703 | 22 | 288 | 1.6 | 1.6 | 0.00 | 0.00 | 0.00 | 90 | 1052.1 |
| 20260902050158 | 22 | 288 | 0.0 | 0.0 | 0.00 | 0.00 | 0.00 | 90 | 1051.8 |
| 20260902045653 | 22 | 288 | 0.0 | 0.0 | 0.00 | 0.00 | 0.00 | 89 | 1051.9 |
| 20260902045149 | 22 | 288 | 0.0 | 0.0 | 0.00 | 0.00 | 0.00 | 89 | 1051.8 |
| 20260902044649 | 23 | 288 | 0.0 | 0.0 | 0.00 | 0.00 | 0.00 | 89 | 1051.8 |
| 20260902044146 | 23 | 288 | 0.0 | 0.0 | 0.00 | 0.00 | 0.00 | 89 | 1052.0 |